Find OneWeb SL0187

NORAD ID: 48221 Int'l Des: 2021-031 Owner: ONEWEBN Country: UK Constellation: oneweb operational
LEOCIRCULARPOLARONEWEB_TYPE

实时位置

正在加载3D地球...

关于 OneWeb SL0187

正在加载描述...

即将过境

Passes for default location (London). Set your location on the main map for personalized predictions.

高度历史

Loading altitude history...

两行轨道根数

1 48221U 21031M 26125.26745286 -.00000175 00000-0 -50708-3 0 9998
2 48221 87.8915 298.2824 0001508 97.2159 262.9142 13.14502819242625
Epoch: May 5, 2026 • Age: 7 hours

当前状态

高度 1224.3 km
速度 7.24 km/s
星下点 -45.51°S, 129.78°W
发射日期 Apr 25, 2021
运行时间 5 years
类型 internet

技术详情

分类 Payload
质量 148.00 kg
干质量 140.00 kg
总质量 148.00 kg
长度 1.30 m
直径 1.00 m
跨度 5.00 m
形状 Trapezoid+2 pan
制造商 ONEWUS
平台类型 ARROW
阶段状态 In Orbit
所有者/国家 ONEWEBN/UK

Most Searched